Location: Ahausen
(50.4985°N, 8.2722°E)
Time: 03:30:29
(UTC+00:00)

OBJECT-B - Pass Details

Date: 18 September 2020
Orbit: 421 x 433 km, 97.0° (Epoch: 09 October)

Event Time Altitude Azimuth Distance (km) Brightness Sun altitude
Exits shadow 19:01:25 31° 112° (ESE) 774 1.5 -14.5°
Maximum altitude 19:02:21 39° 71° (ENE) 652 1.3 -14.7°
Drops below altitude 10° 19:05:25 10° 1° (N) 1,525 3.8 -15.1°
Sets 19:07:30 0° 354° (N) 2,398 5.0 -15.4°
